Theta_e
306 306 306 305 305 305 304 304 304 304 304 304 304 304 304 304 305 304 305 305 306 306 306 306 307 310 313 314 314 313 307 307 309 311 313 314 313 314 315 314 315 316 316 315 314
306 306 306 306 305 305 305 304 304 304 304 304 304 304 304 304 304 305 305 306 306 305 306 307 309 311 312 312 312 309 303 305 308 310 311 311 311 312 313 313 313 314 315 315 314
305 306 306 306 306 305 305 305 305 304 304 304 304 304 304 305 305 306 307 305 306 305 306 309 310 311 311 311 311 308 306 308 311 312 311 310 309 311 310 308 311 312 312 313 314
305 305 306 306 306 305 305 305 305 305 304 304 304 304 305 305 305 307 306 307 306 305 307 310 311 310 309 309 310 310 309 309 310 312 310 309 309 309 309 310 311 311 311 311 312
306 305 305 306 306 305 305 305 305 305 305 304 304 304 305 305 305 307 306 306 306 306 307 309 310 310 309 308 310 309 309 309 310 310 310 309 308 307 308 309 309 310 310 310 311
312 308 305 305 306 306 305 305 305 305 305 305 304 304 304 305 307 307 307 306 305 306 308 309 310 310 310 309 308 308 309 308 309 309 309 308 307 306 309 310 310 309 309 309 310
316 313 309 307 305 305 306 306 305 305 305 305 304 304 304 305 307 307 306 305 305 306 308 309 310 310 310 308 310 309 307 305 305 307 307 308 307 305 311 310 310 310 310 308 309
317 316 313 311 308 306 305 306 305 305 305 304 304 304 305 306 305 307 307 306 306 306 307 308 310 310 310 309 308 308 307 307 308 306 308 307 309 307 309 310 310 310 310 309 309
318 317 316 314 312 309 305 305 306 306 306 304 304 304 305 306 307 308 307 307 306 306 308 309 308 309 308 305 303 305 305 307 308 306 308 306 307 306 308 309 309 310 309 309 309
319 318 317 317 315 312 306 305 305 306 305 304 304 305 306 306 306 306 306 308 307 306 307 308 309 306 304 302 305 304 308 308 309 308 307 306 305 306 307 307 307 308 308 308 308
319 320 318 317 318 314 307 305 305 308 306 306 306 305 307 307 307 306 307 308 307 307 305 309 307 305 304 304 307 308 308 308 306 306 306 305 304 305 306 305 304 305 306 307 307
319 320 319 318 318 318 313 307 307 305 306 309 307 306 306 307 306 306 307 309 308 307 307 308 307 305 305 304 306 307 307 307 305 306 306 305 307 307 304 306 306 306 307 307 306
320 320 319 318 318 319 318 311 308 309 306 308 308 306 306 306 306 306 307 308 307 306 307 306 307 305 306 307 307 307 306 307 307 306 305 305 307 308 306 306 306 307 307 307 307
319 319 319 318 317 318 318 316 306 307 305 310 306 306 306 306 305 306 307 307 306 306 307 307 307 307 307 307 306 308 305 307 308 306 307 306 309 308 306 304 305 305 306 307 307
314 317 318 318 317 318 316 313 306 306 316 307 305 305 306 305 305 306 307 307 305 305 306 306 307 307 307 306 304 306 306 306 307 306 307 307 307 309 303 306 304 302 306 306 307
311 312 315 318 318 316 314 306 306 311 314 305 303 305 305 305 305 306 306 306 306 306 305 305 305 306 306 304 305 304 308 307 306 306 306 308 307 310 307 306 305 303 305 307 307
309 309 312 316 317 316 314 307 309 314 304 304 303 305 305 305 305 305 305 306 307 304 303 305 305 305 305 305 305 305 304 302 307 305 310 304 305 309 308 305 303 304 305 306 306
308 309 311 314 314 315 307 307 311 301 302 304 305 304 305 305 305 306 304 305 304 303 302 306 304 304 304 305 306 305 304 307 307 310 312 303 309 313 305 304 304 305 307 307 307
308 309 311 314 314 311 307 309 307 306 305 305 305 305 305 304 305 306 304 303 304 305 308 305 305 302 303 303 303 305 305 305 304 296 306 308 307 308 305 304 303 303 305 306 307
304 308 308 310 312 306 306 312 303 303 306 305 307 304 304 305 305 304 305 304 305 304 306 306 304 301 303 303 302 303 302 305 303 306 309 309 311 312 311 305 302 301 302 306 306
303 307 307 310 310 306 308 308 305 306 306 305 305 306 306 305 304 305 305 304 305 305 305 304 305 302 302 303 306 304 302 302 304 307 308 308 312 311 311 307 302 301 304 306 306
303 304 306 310 304 302 306 305 306 308 307 306 305 307 308 306 304 305 305 304 302 304 306 306 305 302 303 301 301 302 304 303 306 303 303 306 310 309 311 307 304 303 305 306 305
302 303 306 307 307 305 303 307 307 308 306 307 309 306 306 307 309 305 305 302 302 305 305 306 302 300 303 303 301 303 303 303 305 303 303 308 310 309 309 306 306 305 307 306 306
301 301 303 305 305 305 304 305 306 308 308 306 306 306 307 307 307 306 306 303 302 302 305 306 301 303 306 307 304 303 303 303 305 301 305 307 306 309 310 309 306 306 306 305 305
298 294 300 304 304 302 303 303 306 307 307 308 308 309 308 307 306 307 306 303 303 302 302 305 302 300 300 304 304 305 305 303 303 304 306 305 303 308 309 308 309 310 308 306 305
297 297 297 296 303 304 304 302 306 306 305 307 306 307 307 308 308 307 308 307 307 303 302 302 302 299 297 298 302 304 304 303 301 299 302 303 304 305 306 306 308 309 310 308 308
297 298 299 297 298 303 304 303 303 302 303 305 306 306 306 307 307 308 308 307 308 306 303 306 304 303 308 297 302 306 305 304 304 301 303 304 305 307 306 306 308 310 311 311 310
Wind_Speed
6 5 4 4 4 3 3 2 3 4 4 5 5 5 6 5 6 6 6 6 7 7 5 5 7 8 8 6 3 3 3 3 4 6 3 3 2 4 5 8 8 10 12 7 5
7 6 5 5 4 4 4 4 3 4 4 5 6 6 5 6 8 10 7 6 7 6 5 7 8 8 4 4 4 3 3 7 4 3 3 3 5 4 4 6 9 16 20 14 11
9 8 7 6 5 5 5 4 5 4 4 5 6 5 6 6 7 3 5 10 7 6 8 9 8 7 3 4 5 5 5 3 3 5 4 3 4 6 3 7 18 14 17 19 18
9 9 8 7 7 6 6 5 5 6 6 5 5 5 5 4 2 2 3 5 7 7 10 10 7 5 3 4 4 2 7 5 5 4 2 3 4 6 15 18 7 7 10 14 19
9 10 10 9 8 7 6 6 6 6 6 6 5 5 5 4 5 5 4 3 5 7 10 10 10 5 3 3 2 3 3 4 9 9 9 9 11 10 23 27 23 21 15 13 14
9 9 11 10 9 8 8 7 6 7 7 7 7 5 5 4 5 6 5 5 6 8 10 10 6 5 2 2 3 3 7 11 10 11 9 3 4 2 8 3 6 14 24 22 22
11 9 9 9 9 9 9 8 7 7 7 8 7 7 8 9 7 6 5 6 7 9 10 10 6 5 2 2 3 4 6 7 5 4 4 1 7 9 14 11 10 8 11 20 18
14 11 10 9 8 9 9 8 8 7 7 8 7 6 6 7 10 10 7 5 7 9 9 10 8 3 2 2 3 3 2 4 1 5 1 2 9 5 4 10 11 12 11 12 19
15 12 11 8 7 7 8 9 8 7 7 7 7 5 5 5 9 9 7 5 7 8 7 6 7 3 2 3 4 3 4 4 7 7 1 4 8 5 4 5 12 17 17 14 13
14 13 12 10 7 6 6 8 8 7 7 7 10 6 7 3 5 6 9 8 5 8 6 4 2 3 2 3 5 5 4 4 5 1 2 5 17 19 21 20 25 26 22 18 16
18 17 15 11 9 6 5 4 4 3 10 8 3 3 1 5 6 7 11 11 8 5 4 3 3 8 11 7 2 3 2 4 4 1 2 7 11 20 14 12 16 16 15 17 18
21 21 17 12 10 8 7 4 3 2 7 12 18 16 9 7 4 9 14 9 6 5 6 3 8 5 3 4 4 3 3 5 5 0 1 6 19 16 6 3 3 4 2 5 13
21 22 19 14 12 10 9 7 6 4 4 7 15 14 12 16 7 13 19 8 3 5 6 6 2 3 6 4 5 4 5 4 5 5 2 7 8 5 2 2 1 1 2 4 9
14 21 17 18 14 12 11 7 6 2 4 5 4 4 9 8 4 11 21 6 3 9 7 5 2 4 3 3 6 3 3 2 1 3 3 4 5 7 4 7 4 6 4 5 10
15 17 18 19 8 11 4 8 10 2 3 1 3 3 8 6 5 2 17 4 5 6 6 6 4 4 3 3 6 4 2 3 2 3 3 1 2 7 4 6 7 8 11 9 11
17 17 15 22 20 11 9 12 9 4 8 1 2 2 5 2 2 4 5 2 3 4 2 1 0 1 1 3 2 6 4 6 4 2 2 1 4 6 3 5 1 4 15 14 15
15 18 19 22 25 19 16 20 4 4 3 3 3 3 2 3 2 2 5 5 5 4 2 3 2 0 2 4 4 3 5 2 4 3 5 2 1 10 5 6 4 6 17 18 16
16 15 21 21 18 19 31 5 5 4 5 1 4 4 4 5 3 4 5 5 4 4 3 6 5 7 3 2 5 5 5 5 6 3 3 3 6 6 5 4 8 12 14 18 19
16 17 17 26 22 23 22 3 7 7 5 9 3 4 4 4 5 4 6 5 7 11 7 5 4 2 3 2 2 5 4 2 6 2 3 4 7 10 4 6 2 6 14 20 21
15 14 20 22 24 33 5 10 6 5 4 2 6 5 7 5 5 6 7 4 4 11 3 4 2 3 2 1 2 2 1 3 3 2 4 4 5 6 4 8 6 7 16 21 21
18 9 15 20 25 18 6 6 5 8 2 4 5 4 4 5 6 5 5 2 3 1 6 5 3 3 2 5 6 2 1 0 1 3 5 1 6 6 6 5 10 10 22 23 24
15 3 16 27 5 3 5 6 4 4 5 3 3 1 5 6 5 3 5 3 3 3 7 5 4 4 6 1 2 2 4 6 4 5 2 2 6 3 3 3 8 13 21 22 23
11 9 17 34 8 6 2 4 7 4 4 5 4 2 1 4 1 5 3 1 3 1 5 6 2 2 5 3 2 4 4 3 3 2 6 5 5 4 5 6 5 9 14 22 21
11 4 10 27 7 9 7 5 6 9 4 6 5 6 5 1 4 3 2 1 1 3 4 3 3 6 5 2 4 3 5 5 3 2 4 7 6 11 9 6 8 14 10 14 22
9 6 9 9 12 8 10 10 8 6 6 13 4 5 6 5 1 3 1 2 1 3 2 3 3 3 3 4 3 4 6 6 10 12 6 2 7 13 11 7 4 14 14 14 20
10 5 3 2 20 17 14 10 12 7 9 5 6 11 9 6 5 7 4 1 4 3 3 1 3 3 4 3 3 7 10 8 9 3 9 9 13 17 24 17 19 24 19 20 23
24 6 4 5 6 13 16 14 13 8 2 7 9 6 6 8 7 9 7 5 3 3 3 1 3 3 5 3 2 11 12 16 9 7 8 11 16 14 9 13 23 29 21 24 26
Wind_Direction
237 239 247 271 289 298 307 317 311 299 302 299 292 291 280 268 259 262 257 229 220 230 232 197 180 179 182 178 177 150 67 237 242 173 219 217 227 225 243 242 221 219 239 235 236
237 239 241 248 269 286 296 306 312 309 309 303 299 293 290 283 270 261 244 225 216 224 201 179 170 175 187 194 191 120 139 226 221 200 216 209 217 265 264 247 250 243 242 243 234
244 243 245 244 253 267 280 292 302 308 310 310 298 296 302 299 294 242 226 221 216 211 185 169 172 172 209 192 203 170 212 223 257 229 229 253 272 236 241 263 245 244 265 242 235
254 252 247 250 252 257 267 277 288 300 306 308 299 298 299 290 229 164 158 174 204 198 186 178 174 169 191 214 205 223 247 246 286 250 241 236 276 270 225 249 261 277 259 249 236
258 257 253 254 257 263 265 274 282 290 297 300 295 289 292 262 245 191 165 165 195 190 191 188 183 178 186 218 206 222 265 254 267 269 258 266 253 259 267 271 265 260 250 235 239
266 262 259 253 254 261 265 268 275 284 291 294 295 280 270 261 218 210 225 221 206 190 189 186 193 192 237 236 182 303 291 281 284 270 251 254 272 320 275 282 289 246 243 246 251
260 263 265 262 258 251 259 265 269 276 283 287 285 278 266 255 214 210 199 199 199 194 194 194 185 194 176 290 288 309 320 317 236 234 237 225 283 229 260 271 266 258 256 240 248
253 255 258 265 265 263 255 254 263 272 278 280 275 276 259 237 224 219 225 212 200 192 195 204 206 208 224 298 3 344 44 338 225 156 195 128 270 263 269 248 255 249 250 243 248
249 249 253 254 262 270 265 256 255 262 269 270 269 257 256 239 228 217 200 195 194 188 184 188 180 195 129 96 4 5 245 220 311 199 125 177 273 259 259 254 259 262 250 242 246
238 245 245 246 255 264 270 262 257 254 249 257 245 279 237 220 196 194 186 170 163 165 155 166 146 92 45 116 224 213 233 238 255 242 188 256 261 277 273 266 271 277 259 247 243
232 237 240 240 242 245 252 263 251 248 225 213 185 221 170 189 183 184 175 162 143 155 160 184 139 208 211 190 107 113 232 275 269 274 274 248 277 281 292 250 270 276 262 248 236
233 236 229 232 235 233 238 227 240 290 297 252 245 240 228 202 187 188 176 173 169 175 132 69 242 222 169 175 210 251 271 272 277 313 286 325 295 282 288 243 278 302 275 229 207
238 224 219 218 223 235 238 231 234 275 266 266 231 235 225 219 219 199 184 181 162 158 179 168 263 90 156 164 161 219 199 220 236 319 242 324 291 322 309 290 277 224 256 231 211
225 222 211 207 216 225 245 223 203 223 38 258 212 212 193 174 231 197 188 171 194 194 160 240 289 164 179 191 142 252 208 143 76 43 262 16 287 305 324 299 245 218 222 193 182
229 229 218 217 207 198 202 189 175 79 295 120 166 149 156 173 129 153 181 185 174 175 128 228 169 176 178 196 167 225 82 107 85 97 3 352 95 270 356 299 251 227 216 195 180
226 225 224 217 213 191 160 148 129 64 247 198 115 127 111 93 77 103 167 131 116 102 19 258 44 217 189 69 53 146 75 42 48 69 12 200 145 283 219 217 268 225 213 199 190
221 233 219 215 212 205 176 138 80 208 336 230 170 136 124 152 134 160 169 176 156 104 235 348 200 155 153 88 27 79 82 325 351 8 213 28 92 247 252 240 233 212 211 203 197
213 209 209 209 206 192 153 88 209 224 219 202 112 96 178 161 188 161 136 186 209 106 118 160 294 167 170 184 176 182 165 166 207 207 249 24 232 249 206 273 260 249 228 200 201
209 207 210 208 202 181 155 173 207 201 170 151 99 113 219 207 162 154 191 209 207 174 180 145 277 339 55 356 93 191 193 181 103 36 48 215 280 291 226 260 262 207 190 198 201
202 199 212 206 206 176 149 221 204 203 160 139 154 162 182 200 162 185 183 204 227 191 171 205 24 359 327 339 31 173 156 83 352 159 243 278 278 241 283 228 214 215 210 205 204
190 197 202 196 175 171 197 217 213 206 149 155 200 147 159 175 186 189 198 250 226 182 173 142 126 304 29 203 190 154 233 222 189 164 177 198 257 224 247 230 207 218 215 213 211
188 200 183 186 138 201 207 167 171 206 153 67 34 182 169 151 190 214 210 238 8 180 161 192 128 166 200 272 342 314 215 167 142 249 247 160 274 359 276 311 237 238 226 222 220
193 185 182 183 201 188 206 174 193 159 158 130 207 298 265 152 62 203 182 21 4 181 150 182 237 45 346 19 12 225 201 209 113 89 203 155 258 337 335 325 291 259 252 230 220
181 167 212 207 190 194 182 204 197 207 164 163 167 170 108 271 161 289 157 27 67 103 56 94 127 166 192 132 123 189 207 197 160 150 185 217 284 302 313 303 311 304 281 245 224
206 212 183 197 212 192 177 189 184 166 201 169 175 159 149 192 81 208 218 247 40 108 60 136 195 155 263 240 210 235 212 191 196 216 217 254 210 254 263 268 299 306 277 261 233
189 183 199 5 163 185 189 191 191 179 160 198 150 194 183 183 186 181 148 161 235 51 168 265 176 110 298 329 236 263 241 205 221 249 247 252 270 242 268 288 285 283 265 253 249
208 215 198 190 184 190 201 197 198 155 214 186 182 162 189 221 195 169 180 188 205 160 196 122 127 80 270 332 354 287 228 218 202 193 163 212 223 261 259 242 259 267 264 253 250